Time,TemperatureF,DewpointF,PressureIn,WindDirection,WindDirectionDegrees,WindSpeedMPH,WindSpeedGustMPH,Humidity,HourlyPrecipIn,Conditions,Clouds,dailyrainin,SoftwareType,DateUTC
2013-08-11 00:00:00,68.5,65.5,30.10,WNW,286,0.0,0.0,90,0.00,,,0.00,meteobridge,2013-08-11 04:00:00,
2013-08-11 00:01:00,68.5,65.5,30.10,WNW,286,0.0,0.0,90,0.00,,,0.00,meteobridge,2013-08-11 04:01:00,
2013-08-11 00:03:00,68.5,65.5,30.10,WNW,286,0.0,0.0,90,0.00,,,0.00,meteobridge,2013-08-11 04:03:00,
2013-08-11 00:04:00,68.5,65.5,30.10,WNW,286,0.0,0.0,90,0.00,,,0.00,meteobridge,2013-08-11 04:04:00,
2013-08-11 00:10:00,68.4,65.7,30.10,WNW,286,0.0,0.0,91,0.00,,,0.00,meteobridge,2013-08-11 04:10:00,
2013-08-11 00:15:00,68.2,65.5,30.10,WNW,286,0.0,0.0,91,0.00,,,0.00,meteobridge,2013-08-11 04:15:00,
2013-08-11 00:20:00,68.0,65.3,30.10,WNW,286,0.0,0.0,91,0.00,,,0.00,meteobridge,2013-08-11 04:20:00,
2013-08-11 00:25:00,67.8,65.1,30.10,WNW,286,0.0,0.0,91,0.00,,,0.00,meteobridge,2013-08-11 04:25:00,
2013-08-11 00:31:00,67.6,64.9,30.10,WNW,286,0.0,0.0,91,0.00,,,0.00,meteobridge,2013-08-11 04:31:00,
2013-08-11 00:36:00,67.5,65.1,30.11,WNW,286,0.0,0.0,92,0.00,,,0.00,meteobridge,2013-08-11 04:36:00,
2013-08-11 00:41:00,67.5,65.1,30.11,WNW,286,0.0,0.0,92,0.00,,,0.00,meteobridge,2013-08-11 04:41:00,
2013-08-11 00:46:00,67.5,65.3,30.11,WNW,286,0.0,0.0,93,0.00,,,0.00,meteobridge,2013-08-11 04:46:00,
2013-08-11 00:51:00,67.3,65.1,30.11,WNW,286,0.0,0.0,93,0.00,,,0.00,meteobridge,2013-08-11 04:51:00,
2013-08-11 00:57:00,67.1,64.9,30.11,WNW,286,0.0,0.0,93,0.00,,,0.00,meteobridge,2013-08-11 04:57:00,
2013-08-11 01:02:00,66.9,64.8,30.11,WNW,286,0.0,0.0,93,0.00,,,0.00,meteobridge,2013-08-11 05:02:00,
2013-08-11 01:07:00,66.7,64.6,30.11,WNW,286,0.0,0.0,93,0.00,,,0.00,meteobridge,2013-08-11 05:07:00,
2013-08-11 01:12:00,66.7,64.6,30.11,WNW,286,0.0,0.0,93,0.00,,,0.00,meteobridge,2013-08-11 05:12:00,
2013-08-11 01:17:00,66.6,64.4,30.10,WNW,286,0.0,0.0,93,0.00,,,0.00,meteobridge,2013-08-11 05:17:00,
2013-08-11 01:23:00,66.4,64.2,30.11,WNW,286,0.0,0.0,93,0.00,,,0.00,meteobridge,2013-08-11 05:23:00,
2013-08-11 01:28:00,66.4,64.2,30.11,WNW,286,0.0,0.0,93,0.00,,,0.00,meteobridge,2013-08-11 05:28:00,
2013-08-11 01:33:00,66.0,63.9,30.11,WNW,286,0.0,0.0,93,0.00,,,0.00,meteobridge,2013-08-11 05:33:00,
2013-08-11 01:38:00,65.8,64.0,30.11,WNW,286,0.0,0.0,94,0.00,,,0.00,meteobridge,2013-08-11 05:38:00,
2013-08-11 01:43:00,65.8,63.7,30.11,WNW,286,0.0,0.0,93,0.00,,,0.00,meteobridge,2013-08-11 05:43:00,
2013-08-11 01:48:00,65.7,63.9,30.11,WNW,286,0.0,0.0,94,0.00,,,0.00,meteobridge,2013-08-11 05:48:00,
2013-08-11 01:53:00,65.7,63.9,30.11,WNW,286,0.0,0.0,94,0.00,,,0.00,meteobridge,2013-08-11 05:53:00,
2013-08-11 01:58:00,65.7,63.9,30.11,WNW,286,0.0,0.0,94,0.00,,,0.00,meteobridge,2013-08-11 05:58:00,
2013-08-11 02:03:00,65.5,63.7,30.11,WNW,286,0.0,0.0,94,0.00,,,0.00,meteobridge,2013-08-11 06:03:00,
2013-08-11 02:09:00,65.5,63.7,30.11,WNW,286,0.0,0.0,94,0.00,,,0.00,meteobridge,2013-08-11 06:09:00,
2013-08-11 02:14:00,65.5,63.7,30.11,WNW,286,0.0,0.0,94,0.00,,,0.00,meteobridge,2013-08-11 06:14:00,
2013-08-11 02:19:00,65.3,63.5,30.12,WNW,286,0.0,0.0,94,0.00,,,0.00,meteobridge,2013-08-11 06:19:00,
2013-08-11 02:24:00,65.1,63.3,30.12,WNW,286,0.0,0.0,94,0.00,,,0.00,meteobridge,2013-08-11 06:24:00,
2013-08-11 02:30:00,64.9,63.1,30.12,WNW,286,0.0,0.0,94,0.00,,,0.00,meteobridge,2013-08-11 06:30:00,
2013-08-11 02:35:00,64.9,63.1,30.12,WNW,286,0.0,0.0,94,0.00,,,0.00,meteobridge,2013-08-11 06:35:00,
2013-08-11 02:40:00,64.9,63.5,30.12,WNW,286,0.0,0.0,95,0.00,,,0.00,meteobridge,2013-08-11 06:40:00,
2013-08-11 02:45:00,64.8,63.3,30.12,WNW,286,0.0,0.0,95,0.00,,,0.00,meteobridge,2013-08-11 06:45:00,
2013-08-11 02:50:00,64.6,63.1,30.12,WNW,286,0.0,0.0,95,0.00,,,0.00,meteobridge,2013-08-11 06:50:00,
2013-08-11 02:55:00,64.6,63.1,30.12,WNW,286,0.0,0.0,95,0.00,,,0.00,meteobridge,2013-08-11 06:55:00,
2013-08-11 03:00:00,64.6,63.1,30.12,WNW,286,0.0,0.0,95,0.00,,,0.00,meteobridge,2013-08-11 07:00:00,
2013-08-11 03:06:00,64.4,63.0,30.12,WNW,286,0.0,0.0,95,0.00,,,0.00,meteobridge,2013-08-11 07:06:00,
2013-08-11 03:11:00,64.2,62.8,30.13,WNW,286,0.0,0.0,95,0.00,,,0.00,meteobridge,2013-08-11 07:11:00,
2013-08-11 03:16:00,64.0,62.6,30.12,WNW,286,0.0,0.0,95,0.00,,,0.00,meteobridge,2013-08-11 07:16:00,
2013-08-11 03:22:00,64.0,62.6,30.12,WNW,286,0.0,0.0,95,0.00,,,0.00,meteobridge,2013-08-11 07:22:00,
2013-08-11 03:27:00,63.9,62.4,30.13,WNW,286,0.0,0.0,95,0.00,,,0.00,meteobridge,2013-08-11 07:27:00,
2013-08-11 03:32:00,63.7,62.2,30.13,WNW,286,0.9,0.9,95,0.00,,,0.00,meteobridge,2013-08-11 07:32:00,
2013-08-11 03:37:00,63.3,61.9,30.13,WNW,286,0.0,0.0,95,0.00,,,0.00,meteobridge,2013-08-11 07:37:00,
2013-08-11 03:43:00,63.1,61.3,30.13,WNW,286,0.0,0.0,94,0.00,,,0.00,meteobridge,2013-08-11 07:43:00,
2013-08-11 03:48:00,63.0,61.0,30.13,WNW,286,0.0,0.0,93,0.00,,,0.00,meteobridge,2013-08-11 07:48:00,
2013-08-11 03:53:00,62.8,60.8,30.13,WNW,286,0.9,0.9,93,0.00,,,0.00,meteobridge,2013-08-11 07:53:00,
2013-08-11 03:58:00,62.6,60.3,30.13,WNW,286,0.9,0.9,92,0.00,,,0.00,meteobridge,2013-08-11 07:58:00,
2013-08-11 04:03:00,62.6,59.9,30.13,WNW,286,0.0,0.9,91,0.00,,,0.00,meteobridge,2013-08-11 08:03:00,
2013-08-11 04:08:00,62.6,59.5,30.14,WNW,288,0.0,0.9,90,0.00,,,0.00,meteobridge,2013-08-11 08:08:00,
2013-08-11 04:13:00,62.6,59.4,30.14,WNW,288,0.0,0.0,89,0.00,,,0.00,meteobridge,2013-08-11 08:13:00,
2013-08-11 04:18:00,62.8,59.5,30.14,WNW,288,0.0,0.9,89,0.00,,,0.00,meteobridge,2013-08-11 08:18:00,
2013-08-11 04:23:00,62.8,59.2,30.14,WNW,288,0.9,2.0,88,0.00,,,0.00,meteobridge,2013-08-11 08:23:00,
2013-08-11 04:29:00,63.0,59.0,30.14,WNW,288,0.0,2.0,87,0.00,,,0.00,meteobridge,2013-08-11 08:29:00,
2013-08-11 04:34:00,63.1,58.8,30.14,NW,315,0.0,0.0,86,0.00,,,0.00,meteobridge,2013-08-11 08:34:00,
2013-08-11 04:39:00,63.3,59.0,30.14,NW,314,0.0,0.0,86,0.00,,,0.00,meteobridge,2013-08-11 08:39:00,
2013-08-11 04:44:00,63.3,58.8,30.14,NW,315,0.0,0.0,85,0.00,,,0.00,meteobridge,2013-08-11 08:44:00,
2013-08-11 04:49:00,63.5,58.6,30.15,NW,315,0.0,0.0,84,0.00,,,0.00,meteobridge,2013-08-11 08:49:00,
2013-08-11 04:54:00,63.7,58.8,30.15,NW,314,0.0,0.0,84,0.00,,,0.00,meteobridge,2013-08-11 08:54:00,
2013-08-11 04:59:00,63.7,58.8,30.15,NW,314,0.0,0.0,84,0.00,,,0.00,meteobridge,2013-08-11 08:59:00,
2013-08-11 05:04:00,63.5,58.8,30.15,NW,315,0.0,0.0,85,0.00,,,0.00,meteobridge,2013-08-11 09:04:00,
2013-08-11 05:10:00,63.3,58.8,30.15,NW,314,0.0,0.0,85,0.00,,,0.00,meteobridge,2013-08-11 09:10:00,
2013-08-11 05:15:00,63.1,58.6,30.15,NW,315,0.0,0.0,85,0.00,,,0.00,meteobridge,2013-08-11 09:15:00,
2013-08-11 05:20:00,63.0,58.5,30.15,NW,314,0.0,0.0,85,0.00,,,0.00,meteobridge,2013-08-11 09:20:00,
2013-08-11 05:25:00,63.0,59.0,30.15,NW,314,0.0,0.0,87,0.00,,,0.00,meteobridge,2013-08-11 09:25:00,
2013-08-11 05:30:00,63.0,59.0,30.15,NW,314,0.0,0.0,87,0.00,,,0.00,meteobridge,2013-08-11 09:30:00,
2013-08-11 05:35:00,62.8,58.8,30.15,NW,315,0.0,0.0,87,0.00,,,0.00,meteobridge,2013-08-11 09:35:00,
2013-08-11 05:40:00,62.6,58.3,30.16,NW,314,0.0,0.0,86,0.00,,,0.00,meteobridge,2013-08-11 09:40:00,
2013-08-11 05:45:00,62.4,58.5,30.16,NW,315,0.0,0.0,87,0.00,,,0.00,meteobridge,2013-08-11 09:45:00,
2013-08-11 05:50:00,62.4,58.5,30.16,NW,315,0.0,0.0,87,0.00,,,0.00,meteobridge,2013-08-11 09:50:00,
2013-08-11 05:55:00,62.4,58.5,30.16,NW,314,0.0,0.0,87,0.00,,,0.00,meteobridge,2013-08-11 09:55:00,
2013-08-11 06:00:00,62.4,59.2,30.16,NW,314,0.0,0.0,89,0.00,,,0.00,meteobridge,2013-08-11 10:00:00,
2013-08-11 06:05:00,62.4,59.2,30.16,NW,315,0.0,0.0,89,0.00,,,0.00,meteobridge,2013-08-11 10:05:00,
2013-08-11 06:10:00,62.2,59.0,30.16,NW,315,0.0,0.0,89,0.00,,,0.00,meteobridge,2013-08-11 10:10:00,
2013-08-11 06:15:00,62.1,58.8,30.16,NW,314,0.0,0.0,89,0.00,,,0.00,meteobridge,2013-08-11 10:15:00,
2013-08-11 06:20:00,62.1,58.8,30.16,NW,314,0.0,0.0,89,0.00,,,0.00,meteobridge,2013-08-11 10:20:00,
2013-08-11 06:25:00,61.9,59.0,30.16,NW,315,0.0,0.0,90,0.00,,,0.00,meteobridge,2013-08-11 10:25:00,
2013-08-11 06:30:00,61.9,59.5,30.17,NW,314,0.0,0.0,92,0.00,,,0.00,meteobridge,2013-08-11 10:30:00,
2013-08-11 06:35:00,61.9,59.0,30.17,NW,315,0.0,0.0,90,0.00,,,0.00,meteobridge,2013-08-11 10:35:00,
2013-08-11 06:40:00,61.9,59.2,30.17,NW,315,0.0,0.0,91,0.00,,,0.00,meteobridge,2013-08-11 10:40:00,
2013-08-11 06:45:00,61.9,59.2,30.17,NW,314,0.0,0.0,91,0.00,,,0.00,meteobridge,2013-08-11 10:45:00,
2013-08-11 06:50:00,61.9,59.2,30.17,NW,315,0.0,0.0,91,0.00,,,0.00,meteobridge,2013-08-11 10:50:00,
2013-08-11 06:55:00,61.9,59.5,30.17,NW,314,0.0,0.0,92,0.00,,,0.00,meteobridge,2013-08-11 10:55:00,
2013-08-11 07:01:00,61.9,59.5,30.17,NW,314,0.0,0.0,92,0.00,,,0.00,meteobridge,2013-08-11 11:01:00,
2013-08-11 07:06:00,61.7,59.4,30.17,NW,314,0.0,0.0,92,0.00,,,0.00,meteobridge,2013-08-11 11:06:00,
2013-08-11 07:11:00,61.9,59.5,30.17,NW,315,0.0,0.0,92,0.00,,,0.00,meteobridge,2013-08-11 11:11:00,
2013-08-11 07:16:00,62.1,60.1,30.17,NW,314,0.0,0.0,93,0.00,,,0.00,meteobridge,2013-08-11 11:16:00,
2013-08-11 07:21:00,62.2,60.3,30.17,NW,314,0.0,0.0,93,0.00,,,0.00,meteobridge,2013-08-11 11:21:00,
2013-08-11 07:26:00,62.4,60.4,30.17,NW,314,0.0,0.0,93,0.00,,,0.00,meteobridge,2013-08-11 11:26:00,
2013-08-11 07:31:00,62.6,60.6,30.17,NW,315,0.0,0.0,93,0.00,,,0.00,meteobridge,2013-08-11 11:31:00,
2013-08-11 07:36:00,63.0,61.0,30.17,NW,315,0.0,0.0,93,0.00,,,0.00,meteobridge,2013-08-11 11:36:00,
2013-08-11 07:41:00,63.3,61.0,30.17,NW,322,0.0,2.9,92,0.00,,,0.00,meteobridge,2013-08-11 11:41:00,
2013-08-11 07:47:00,63.9,60.6,30.17,NW,322,0.9,2.0,89,0.00,,,0.00,meteobridge,2013-08-11 11:47:00,
2013-08-11 07:52:00,64.9,60.3,30.17,North,9,0.0,4.9,85,0.00,,,0.00,meteobridge,2013-08-11 11:52:00,
2013-08-11 07:57:00,65.8,60.3,30.17,NNE,26,2.0,4.9,82,0.00,,,0.00,meteobridge,2013-08-11 11:57:00,
2013-08-11 08:02:00,67.1,60.4,30.17,North,0,2.9,4.0,79,0.00,,,0.00,meteobridge,2013-08-11 12:02:00,
2013-08-11 08:07:00,68.0,60.1,30.17,North,355,2.9,4.9,76,0.00,,,0.00,meteobridge,2013-08-11 12:07:00,
2013-08-11 08:12:00,68.5,60.3,30.18,NNE,19,4.0,4.9,75,0.00,,,0.00,meteobridge,2013-08-11 12:12:00,
2013-08-11 08:17:00,69.1,60.4,30.18,NNE,12,2.9,2.9,74,0.00,,,0.00,meteobridge,2013-08-11 12:17:00,
2013-08-11 08:22:00,69.4,61.2,30.18,North,5,4.0,4.9,75,0.00,,,0.00,meteobridge,2013-08-11 12:22:00,
2013-08-11 08:27:00,70.0,61.3,30.18,NNE,24,0.9,6.0,74,0.00,,,0.00,meteobridge,2013-08-11 12:27:00,
2013-08-11 08:32:00,70.2,62.2,30.18,NNE,25,0.0,2.0,76,0.00,,,0.00,meteobridge,2013-08-11 12:32:00,
2013-08-11 08:37:00,70.2,60.6,30.18,NNE,15,2.9,4.0,72,0.00,,,0.00,meteobridge,2013-08-11 12:37:00,
2013-08-11 08:42:00,70.2,59.9,30.18,NE,36,0.0,4.0,70,0.00,,,0.00,meteobridge,2013-08-11 12:42:00,
2013-08-11 08:47:00,70.3,60.8,30.18,ENE,61,0.9,0.9,72,0.00,,,0.00,meteobridge,2013-08-11 12:47:00,
2013-08-11 08:52:00,70.3,60.1,30.18,NNE,22,0.0,2.9,70,0.00,,,0.00,meteobridge,2013-08-11 12:52:00,
2013-08-11 08:58:00,70.7,61.2,30.18,NNE,17,4.0,6.0,72,0.00,,,0.00,meteobridge,2013-08-11 12:58:00,
2013-08-11 09:03:00,71.1,60.8,30.18,NE,51,0.0,0.9,70,0.00,,,0.00,meteobridge,2013-08-11 13:03:00,
2013-08-11 09:08:00,71.6,60.4,30.18,NNE,28,4.0,4.0,68,0.00,,,0.00,meteobridge,2013-08-11 13:08:00,
2013-08-11 09:13:00,72.0,60.8,30.18,NNE,27,0.0,0.9,68,0.00,,,0.00,meteobridge,2013-08-11 13:13:00,
2013-08-11 09:18:00,72.3,60.3,30.18,NE,40,0.0,4.0,66,0.00,,,0.00,meteobridge,2013-08-11 13:18:00,
2013-08-11 09:23:00,72.9,60.4,30.18,NE,40,0.0,0.9,65,0.00,,,0.00,meteobridge,2013-08-11 13:23:00,
2013-08-11 09:28:00,73.2,60.8,30.18,NE,40,0.0,2.0,65,0.00,,,0.00,meteobridge,2013-08-11 13:28:00,
2013-08-11 09:33:00,73.6,61.2,30.18,NE,40,0.9,2.0,65,0.00,,,0.00,meteobridge,2013-08-11 13:33:00,
2013-08-11 09:39:00,73.4,60.4,30.18,ESE,121,0.0,0.9,64,0.00,,,0.00,meteobridge,2013-08-11 13:39:00,
2013-08-11 09:44:00,73.8,60.8,30.19,NE,39,0.9,2.9,64,0.00,,,0.00,meteobridge,2013-08-11 13:44:00,
2013-08-11 09:49:00,74.1,61.5,30.18,NNE,24,0.9,2.9,65,0.00,,,0.00,meteobridge,2013-08-11 13:49:00,
2013-08-11 09:54:00,74.1,60.8,30.19,South,171,0.0,0.9,63,0.00,,,0.00,meteobridge,2013-08-11 13:54:00,
2013-08-11 09:59:00,74.1,61.2,30.18,NE,40,0.0,0.9,64,0.00,,,0.00,meteobridge,2013-08-11 13:59:00,
2013-08-11 10:04:00,74.7,61.7,30.18,NNE,32,0.0,2.9,64,0.00,,,0.00,meteobridge,2013-08-11 14:04:00,
2013-08-11 10:09:00,75.0,62.4,30.18,North,9,0.9,2.0,65,0.00,,,0.00,meteobridge,2013-08-11 14:09:00,
2013-08-11 10:14:00,75.6,61.7,30.19,WNW,283,0.0,4.9,62,0.00,,,0.00,meteobridge,2013-08-11 14:14:00,
2013-08-11 10:20:00,75.7,60.8,30.19,North,355,4.9,4.9,60,0.00,,,0.00,meteobridge,2013-08-11 14:20:00,
2013-08-11 10:25:00,76.5,60.6,30.18,NNE,20,0.0,6.0,58,0.00,,,0.00,meteobridge,2013-08-11 14:25:00,
2013-08-11 10:30:00,76.5,60.1,30.18,NNE,20,2.9,4.9,57,0.00,,,0.00,meteobridge,2013-08-11 14:30:00,
2013-08-11 10:35:00,76.6,61.7,30.18,NNE,20,0.0,0.9,60,0.00,,,0.00,meteobridge,2013-08-11 14:35:00,
2013-08-11 10:40:00,76.6,59.7,30.18,NE,51,0.0,4.0,56,0.00,,,0.00,meteobridge,2013-08-11 14:40:00,
2013-08-11 10:45:00,75.6,58.8,30.19,SW,217,0.9,4.0,56,0.00,,,0.00,meteobridge,2013-08-11 14:45:00,
2013-08-11 10:50:00,75.6,62.1,30.19,SW,217,0.9,0.9,63,0.00,,,0.00,meteobridge,2013-08-11 14:50:00,
2013-08-11 10:55:00,76.5,61.0,30.19,SSE,147,0.0,4.0,59,0.00,,,0.00,meteobridge,2013-08-11 14:55:00,
2013-08-11 11:00:00,77.0,61.2,30.19,SSE,150,0.9,0.9,58,0.00,,,0.00,meteobridge,2013-08-11 15:00:00,
2013-08-11 11:06:00,77.4,59.9,30.19,ENE,77,0.9,4.9,55,0.00,,,0.00,meteobridge,2013-08-11 15:06:00,
2013-08-11 11:11:00,77.0,61.2,30.19,ESE,107,0.0,2.0,58,0.00,,,0.00,meteobridge,2013-08-11 15:11:00,
2013-08-11 11:16:00,77.0,61.5,30.18,ESE,107,0.9,0.9,59,0.00,,,0.00,meteobridge,2013-08-11 15:16:00,
2013-08-11 11:21:00,77.5,59.0,30.19,NNE,22,2.9,4.9,53,0.00,,,0.00,meteobridge,2013-08-11 15:21:00,
2013-08-11 11:26:00,77.5,60.1,30.18,NNE,24,4.9,4.9,55,0.00,,,0.00,meteobridge,2013-08-11 15:26:00,
2013-08-11 11:32:00,78.1,60.1,30.18,NNE,16,2.9,4.9,54,0.00,,,0.00,meteobridge,2013-08-11 15:32:00,
2013-08-11 11:37:00,78.4,61.5,30.18,North,0,0.9,0.9,56,0.00,,,0.00,meteobridge,2013-08-11 15:37:00,
2013-08-11 11:42:00,79.0,60.4,30.18,NNW,343,0.9,4.0,53,0.00,,,0.00,meteobridge,2013-08-11 15:42:00,
2013-08-11 11:47:00,80.1,62.4,30.18,NNE,27,0.0,0.9,55,0.00,,,0.00,meteobridge,2013-08-11 15:47:00,
2013-08-11 11:53:00,80.6,63.0,30.17,NNE,27,0.0,0.0,55,0.00,,,0.00,meteobridge,2013-08-11 15:53:00,
2013-08-11 11:58:00,80.4,61.7,30.17,SE,128,0.0,4.0,53,0.00,,,0.00,meteobridge,2013-08-11 15:58:00,
2013-08-11 12:03:00,80.1,62.4,30.17,NNE,15,2.9,2.9,55,0.00,,,0.00,meteobridge,2013-08-11 16:03:00,
2013-08-11 12:08:00,80.1,62.4,30.17,NNE,20,2.0,2.0,55,0.00,,,0.00,meteobridge,2013-08-11 16:08:00,
2013-08-11 12:13:00,80.1,62.4,30.17,ESE,112,0.9,0.9,55,0.00,,,0.00,meteobridge,2013-08-11 16:13:00,
2013-08-11 12:18:00,79.7,62.6,30.17,ENE,71,0.9,2.9,56,0.00,,,0.00,meteobridge,2013-08-11 16:18:00,
2013-08-11 12:23:00,79.9,62.8,30.17,North,355,0.9,2.0,56,0.00,,,0.00,meteobridge,2013-08-11 16:23:00,
2013-08-11 12:28:00,80.4,62.2,30.16,NNW,333,0.0,0.9,54,0.00,,,0.00,meteobridge,2013-08-11 16:28:00,
2013-08-11 12:33:00,81.0,61.2,30.16,North,5,0.9,4.9,51,0.00,,,0.00,meteobridge,2013-08-11 16:33:00,
2013-08-11 12:38:00,81.0,60.6,30.16,NNE,22,2.0,4.9,50,0.00,,,0.00,meteobridge,2013-08-11 16:38:00,
2013-08-11 12:44:00,80.8,62.1,30.16,ENE,75,2.9,2.9,53,0.00,,,0.00,meteobridge,2013-08-11 16:44:00,
2013-08-11 12:49:00,80.8,61.0,30.16,ENE,75,0.0,4.0,51,0.00,,,0.00,meteobridge,2013-08-11 16:49:00,
2013-08-11 12:54:00,80.2,62.1,30.16,SSE,161,4.9,6.0,54,0.00,,,0.00,meteobridge,2013-08-11 16:54:00,
2013-08-11 12:59:00,79.9,62.2,30.16,SSE,162,0.0,2.0,55,0.00,,,0.00,meteobridge,2013-08-11 16:59:00,
2013-08-11 13:04:00,80.4,62.2,30.16,SSE,161,2.0,2.0,54,0.00,,,0.00,meteobridge,2013-08-11 17:04:00,
2013-08-11 13:09:00,80.8,61.5,30.16,East,82,2.0,4.0,52,0.00,,,0.00,meteobridge,2013-08-11 17:09:00,
2013-08-11 13:14:00,80.2,61.5,30.16,ESE,121,0.0,4.9,53,0.00,,,0.00,meteobridge,2013-08-11 17:14:00,
2013-08-11 13:19:00,80.1,62.4,30.15,East,100,0.0,4.0,55,0.00,,,0.00,meteobridge,2013-08-11 17:19:00,
2013-08-11 13:24:00,79.7,62.6,30.15,ENE,57,0.0,2.0,56,0.00,,,0.00,meteobridge,2013-08-11 17:24:00,
2013-08-11 13:29:00,79.3,62.2,30.15,ESE,107,0.0,0.9,56,0.00,,,0.00,meteobridge,2013-08-11 17:29:00,
2013-08-11 13:35:00,79.3,62.2,30.15,SSE,147,2.0,2.0,56,0.00,,,0.00,meteobridge,2013-08-11 17:35:00,
2013-08-11 13:40:00,79.3,62.2,30.15,ESE,108,4.0,4.0,56,0.00,,,0.00,meteobridge,2013-08-11 17:40:00,
2013-08-11 13:45:00,78.6,62.6,30.15,East,100,0.0,0.9,58,0.00,,,0.00,meteobridge,2013-08-11 17:45:00,
2013-08-11 13:50:00,78.4,61.9,30.15,SSW,194,0.0,2.9,57,0.00,,,0.00,meteobridge,2013-08-11 17:50:00,
2013-08-11 13:55:00,78.4,61.5,30.14,SSE,167,0.9,4.9,56,0.00,,,0.00,meteobridge,2013-08-11 17:55:00,
2013-08-11 14:00:00,78.3,61.3,30.15,SSE,154,0.9,0.9,56,0.00,,,0.00,meteobridge,2013-08-11 18:00:00,
2013-08-11 14:05:00,78.1,61.2,30.14,SSE,151,0.0,2.0,56,0.00,,,0.00,meteobridge,2013-08-11 18:05:00,
2013-08-11 14:10:00,78.3,62.2,30.14,SSE,151,0.9,4.0,58,0.00,,,0.00,meteobridge,2013-08-11 18:10:00,
2013-08-11 14:15:00,78.1,61.2,30.14,South,171,0.0,6.0,56,0.00,,,0.00,meteobridge,2013-08-11 18:15:00,
2013-08-11 14:21:00,77.7,62.8,30.14,West,272,0.0,4.9,60,0.00,,,0.00,meteobridge,2013-08-11 18:21:00,
2013-08-11 14:26:00,78.1,62.1,30.14,ESE,121,0.0,4.0,58,0.00,,,0.00,meteobridge,2013-08-11 18:26:00,
2013-08-11 14:31:00,79.0,63.0,30.14,SW,215,2.0,2.0,58,0.00,,,0.00,meteobridge,2013-08-11 18:31:00,
2013-08-11 14:36:00,79.2,61.5,30.14,SW,215,0.0,4.9,55,0.00,,,0.00,meteobridge,2013-08-11 18:36:00,
2013-08-11 14:41:00,79.0,61.5,30.14,WSW,253,2.0,6.0,55,0.00,,,0.00,meteobridge,2013-08-11 18:41:00,
2013-08-11 14:46:00,79.0,61.9,30.14,SSE,150,4.0,4.9,56,0.00,,,0.00,meteobridge,2013-08-11 18:46:00,
2013-08-11 14:51:00,79.2,61.2,30.14,North,9,2.0,6.0,54,0.00,,,0.00,meteobridge,2013-08-11 18:51:00,
2013-08-11 14:56:00,79.0,61.5,30.13,SSE,165,4.9,6.0,55,0.00,,,0.00,meteobridge,2013-08-11 18:56:00,
2013-08-11 15:01:00,79.0,61.5,30.13,ESE,119,4.0,4.9,55,0.00,,,0.00,meteobridge,2013-08-11 19:01:00,
2013-08-11 15:06:00,79.3,62.2,30.13,SSW,202,2.0,4.9,56,0.00,,,0.00,meteobridge,2013-08-11 19:06:00,
2013-08-11 15:11:00,79.5,61.9,30.13,SE,145,2.0,4.9,55,0.00,,,0.00,meteobridge,2013-08-11 19:11:00,
2013-08-11 15:16:00,78.8,60.8,30.13,South,186,2.0,6.9,54,0.00,,,0.00,meteobridge,2013-08-11 19:16:00,
2013-08-11 15:22:00,78.8,61.7,30.12,ENE,72,0.9,6.0,56,0.00,,,0.00,meteobridge,2013-08-11 19:22:00,
2013-08-11 15:27:00,79.2,62.1,30.12,NE,38,0.9,4.9,56,0.00,,,0.00,meteobridge,2013-08-11 19:27:00,
2013-08-11 15:32:00,79.0,61.9,30.12,SE,126,0.0,4.9,56,0.00,,,0.00,meteobridge,2013-08-11 19:32:00,
2013-08-11 15:37:00,79.0,61.9,30.12,SSE,153,4.9,6.9,56,0.00,,,0.00,meteobridge,2013-08-11 19:37:00,
2013-08-11 15:42:00,79.2,62.1,30.12,SW,219,0.0,4.9,56,0.00,,,0.00,meteobridge,2013-08-11 19:42:00,
2013-08-11 15:47:00,79.3,62.8,30.12,South,176,4.0,4.9,57,0.00,,,0.00,meteobridge,2013-08-11 19:47:00,
2013-08-11 15:52:00,79.0,63.0,30.12,South,185,4.9,8.1,58,0.00,,,0.00,meteobridge,2013-08-11 19:52:00,
2013-08-11 15:57:00,78.4,62.4,30.12,South,175,2.0,8.9,58,0.00,,,0.00,meteobridge,2013-08-11 19:57:00,
2013-08-11 16:02:00,79.0,64.4,30.12,SSW,198,0.9,6.0,61,0.00,,,0.00,meteobridge,2013-08-11 20:02:00,
2013-08-11 16:07:00,79.2,63.7,30.12,SSE,148,4.0,8.9,59,0.00,,,0.00,meteobridge,2013-08-11 20:07:00,
2013-08-11 16:12:00,79.0,64.4,30.12,South,185,4.0,4.0,61,0.00,,,0.00,meteobridge,2013-08-11 20:12:00,
2013-08-11 16:17:00,78.6,63.5,30.12,WSW,238,2.9,4.9,60,0.00,,,0.00,meteobridge,2013-08-11 20:17:00,
2013-08-11 16:22:00,78.1,63.1,30.11,SSW,210,4.0,6.9,60,0.00,,,0.00,meteobridge,2013-08-11 20:22:00,
2013-08-11 16:27:00,77.5,62.6,30.11,South,175,4.9,12.1,60,0.00,,,0.00,meteobridge,2013-08-11 20:27:00,
2013-08-11 16:33:00,77.0,63.0,30.11,ESE,119,4.9,6.0,62,0.00,,,0.00,meteobridge,2013-08-11 20:33:00,
2013-08-11 16:38:00,77.4,62.8,30.11,SSE,168,4.0,8.1,61,0.00,,,0.00,meteobridge,2013-08-11 20:38:00,
2013-08-11 16:43:00,77.2,63.1,30.11,South,169,2.0,6.9,62,0.00,,,0.00,meteobridge,2013-08-11 20:43:00,
2013-08-11 16:48:00,77.4,63.3,30.11,ESE,123,4.0,8.1,62,0.00,,,0.00,meteobridge,2013-08-11 20:48:00,
2013-08-11 16:53:00,77.2,63.1,30.11,SSE,160,4.0,8.1,62,0.00,,,0.00,meteobridge,2013-08-11 20:53:00,
2013-08-11 16:58:00,77.2,64.6,30.11,South,173,0.0,2.0,65,0.00,,,0.00,meteobridge,2013-08-11 20:58:00,
2013-08-11 17:03:00,77.0,63.5,30.11,SW,234,2.9,6.9,63,0.00,,,0.00,meteobridge,2013-08-11 21:03:00,
2013-08-11 17:08:00,76.6,64.0,30.11,ESE,107,2.0,4.9,65,0.00,,,0.00,meteobridge,2013-08-11 21:08:00,
2013-08-11 17:13:00,76.3,63.7,30.11,SSE,157,0.0,4.9,65,0.00,,,0.00,meteobridge,2013-08-11 21:13:00,
2013-08-11 17:18:00,76.3,63.7,30.11,SSW,213,0.9,6.0,65,0.00,,,0.00,meteobridge,2013-08-11 21:18:00,
2013-08-11 17:23:00,76.1,63.0,30.11,SSW,196,2.0,6.9,64,0.00,,,0.00,meteobridge,2013-08-11 21:23:00,
2013-08-11 17:29:00,76.1,63.5,30.10,WSW,244,0.0,4.0,65,0.00,,,0.00,meteobridge,2013-08-11 21:29:00,
2013-08-11 17:34:00,76.1,63.5,30.10,South,182,8.1,8.9,65,0.00,,,0.00,meteobridge,2013-08-11 21:34:00,
2013-08-11 17:39:00,75.7,62.2,30.10,SE,127,4.9,6.0,63,0.00,,,0.00,meteobridge,2013-08-11 21:39:00,
2013-08-11 17:44:00,75.6,62.1,30.10,SSE,158,2.0,4.0,63,0.00,,,0.00,meteobridge,2013-08-11 21:44:00,
2013-08-11 17:49:00,75.6,62.6,30.10,South,171,4.0,4.0,64,0.00,,,0.00,meteobridge,2013-08-11 21:49:00,
2013-08-11 17:54:00,75.6,63.0,30.10,SSW,194,2.0,2.0,65,0.00,,,0.00,meteobridge,2013-08-11 21:54:00,
2013-08-11 17:59:00,75.6,62.6,30.10,SSW,203,0.0,4.0,64,0.00,,,0.00,meteobridge,2013-08-11 21:59:00,
2013-08-11 18:04:00,75.6,63.0,30.10,SSE,153,0.0,4.0,65,0.00,,,0.00,meteobridge,2013-08-11 22:04:00,
2013-08-11 18:09:00,75.6,63.0,30.10,SSE,151,0.9,4.0,65,0.00,,,0.00,meteobridge,2013-08-11 22:09:00,
2013-08-11 18:14:00,75.6,63.0,30.10,SSE,161,4.0,6.0,65,0.00,,,0.00,meteobridge,2013-08-11 22:14:00,
2013-08-11 18:19:00,75.4,62.8,30.10,SSW,199,2.9,4.0,65,0.00,,,0.00,meteobridge,2013-08-11 22:19:00,
2013-08-11 18:24:00,75.0,62.4,30.10,South,170,4.9,6.0,65,0.00,,,0.00,meteobridge,2013-08-11 22:24:00,
2013-08-11 18:29:00,74.8,62.2,30.10,WSW,243,2.0,6.9,65,0.00,,,0.00,meteobridge,2013-08-11 22:29:00,
2013-08-11 18:35:00,74.8,62.2,30.10,SSE,156,4.0,6.9,65,0.00,,,0.00,meteobridge,2013-08-11 22:35:00,
2013-08-11 18:40:00,74.7,61.7,30.10,SSE,148,4.0,8.1,64,0.00,,,0.00,meteobridge,2013-08-11 22:40:00,
2013-08-11 18:45:00,74.5,61.5,30.10,South,188,0.9,8.1,64,0.00,,,0.00,meteobridge,2013-08-11 22:45:00,
2013-08-11 18:50:00,74.1,62.1,30.10,SSE,149,0.9,4.0,66,0.00,,,0.00,meteobridge,2013-08-11 22:50:00,
2013-08-11 18:55:00,74.1,62.1,30.10,SSE,149,0.9,0.9,66,0.00,,,0.00,meteobridge,2013-08-11 22:55:00,
2013-08-11 19:01:00,73.9,62.2,30.10,South,180,0.9,2.0,67,0.00,,,0.00,meteobridge,2013-08-11 23:01:00,
2013-08-11 19:06:00,73.9,62.2,30.10,SSE,151,2.0,4.0,67,0.00,,,0.00,meteobridge,2013-08-11 23:06:00,
2013-08-11 19:11:00,73.8,62.6,30.10,SSE,151,0.9,0.9,68,0.00,,,0.00,meteobridge,2013-08-11 23:11:00,
2013-08-11 19:16:00,73.4,61.7,30.10,South,178,2.0,6.0,67,0.00,,,0.00,meteobridge,2013-08-11 23:16:00,
2013-08-11 19:21:00,73.2,62.1,30.10,SSE,167,0.9,4.9,68,0.00,,,0.00,meteobridge,2013-08-11 23:21:00,
2013-08-11 19:26:00,73.0,62.2,30.10,WSW,237,0.0,0.0,69,0.00,,,0.00,meteobridge,2013-08-11 23:26:00,
2013-08-11 19:31:00,72.9,62.4,30.10,SW,234,2.0,2.0,70,0.00,,,0.00,meteobridge,2013-08-11 23:31:00,
2013-08-11 19:36:00,72.7,62.8,30.10,ESE,115,2.0,4.9,71,0.00,,,0.00,meteobridge,2013-08-11 23:36:00,
2013-08-11 19:41:00,72.3,62.4,30.10,SSE,166,0.0,6.9,71,0.00,,,0.00,meteobridge,2013-08-11 23:41:00,
2013-08-11 19:47:00,72.1,62.6,30.10,SE,129,0.0,6.0,72,0.00,,,0.00,meteobridge,2013-08-11 23:47:00,
2013-08-11 19:52:00,72.0,62.8,30.10,South,180,0.0,2.9,73,0.00,,,0.00,meteobridge,2013-08-11 23:52:00,
2013-08-11 19:57:00,71.8,63.0,30.10,SE,143,0.9,4.0,74,0.00,,,0.00,meteobridge,2013-08-11 23:57:00,
2013-08-11 20:02:00,71.8,63.0,30.11,SE,144,0.9,4.0,74,0.00,,,0.00,meteobridge,2013-08-12 00:02:00,
2013-08-11 20:07:00,71.4,63.1,30.11,SSW,204,0.9,2.9,75,0.00,,,0.00,meteobridge,2013-08-12 00:07:00,
2013-08-11 20:12:00,71.4,63.5,30.10,SSW,204,0.9,2.0,76,0.00,,,0.00,meteobridge,2013-08-12 00:12:00,
2013-08-11 20:17:00,71.2,63.3,30.10,SE,133,4.0,4.0,76,0.00,,,0.00,meteobridge,2013-08-12 00:17:00,
2013-08-11 20:22:00,71.2,63.3,30.11,South,180,2.0,4.0,76,0.00,,,0.00,meteobridge,2013-08-12 00:22:00,
2013-08-11 20:28:00,71.2,63.7,30.11,West,259,0.9,4.0,77,0.00,,,0.00,meteobridge,2013-08-12 00:28:00,
2013-08-11 20:33:00,71.1,63.5,30.11,SSW,200,0.9,2.0,77,0.00,,,0.00,meteobridge,2013-08-12 00:33:00,
2013-08-11 20:38:00,71.1,63.5,30.11,SE,129,0.0,0.9,77,0.00,,,0.00,meteobridge,2013-08-12 00:38:00,
2013-08-11 20:43:00,71.1,63.9,30.11,South,172,0.9,2.0,78,0.00,,,0.00,meteobridge,2013-08-12 00:43:00,
2013-08-11 20:48:00,71.2,64.0,30.11,South,172,0.0,2.0,78,0.00,,,0.00,meteobridge,2013-08-12 00:48:00,
2013-08-11 20:54:00,71.2,64.0,30.11,South,180,2.0,2.0,78,0.00,,,0.00,meteobridge,2013-08-12 00:54:00,
2013-08-11 20:59:00,71.2,64.4,30.11,South,180,2.0,2.9,79,0.00,,,0.00,meteobridge,2013-08-12 00:59:00,
2013-08-11 21:04:00,71.2,64.4,30.12,SE,138,0.9,2.0,79,0.00,,,0.00,meteobridge,2013-08-12 01:04:00,
2013-08-11 21:09:00,71.2,64.4,30.12,SSE,147,0.9,0.9,79,0.00,,,0.00,meteobridge,2013-08-12 01:09:00,
2013-08-11 21:14:00,71.4,64.9,30.11,SSE,167,0.9,4.9,80,0.00,,,0.00,meteobridge,2013-08-12 01:14:00,
2013-08-11 21:19:00,71.4,64.9,30.11,SSW,200,0.0,0.9,80,0.00,,,0.00,meteobridge,2013-08-12 01:19:00,
2013-08-11 21:24:00,71.4,65.3,30.12,SE,142,0.9,4.0,81,0.00,,,0.00,meteobridge,2013-08-12 01:24:00,
2013-08-11 21:29:00,71.4,65.3,30.12,South,180,0.0,0.0,81,0.00,,,0.00,meteobridge,2013-08-12 01:29:00,
2013-08-11 21:34:00,71.4,65.3,30.12,SSE,154,2.0,2.0,81,0.00,,,0.00,meteobridge,2013-08-12 01:34:00,
2013-08-11 21:39:00,71.4,65.7,30.12,SSE,154,0.0,0.0,82,0.00,,,0.00,meteobridge,2013-08-12 01:39:00,
2013-08-11 21:44:00,71.4,65.7,30.12,ESE,121,0.0,0.9,82,0.00,,,0.00,meteobridge,2013-08-12 01:44:00,
2013-08-11 21:50:00,71.2,65.8,30.12,ESE,121,0.0,0.0,83,0.00,,,0.00,meteobridge,2013-08-12 01:50:00,
2013-08-11 21:55:00,71.1,65.7,30.12,SE,124,0.0,0.0,83,0.00,,,0.00,meteobridge,2013-08-12 01:55:00,
2013-08-11 22:00:00,71.1,66.0,30.11,SE,124,0.0,0.9,84,0.00,,,0.00,meteobridge,2013-08-12 02:00:00,
2013-08-11 22:05:00,71.1,66.4,30.11,SSW,195,0.0,0.9,85,0.00,,,0.00,meteobridge,2013-08-12 02:05:00,
2013-08-11 22:10:00,71.1,66.4,30.11,SSW,194,0.0,2.0,85,0.00,,,0.00,meteobridge,2013-08-12 02:10:00,
2013-08-11 22:16:00,71.1,66.7,30.11,South,184,0.0,2.0,86,0.00,,,0.00,meteobridge,2013-08-12 02:16:00,
2013-08-11 22:21:00,71.1,66.7,30.11,South,184,0.0,0.9,86,0.00,,,0.00,meteobridge,2013-08-12 02:21:00,
2013-08-11 22:26:00,70.9,66.6,30.11,South,184,0.0,0.0,86,0.00,,,0.00,meteobridge,2013-08-12 02:26:00,
2013-08-11 22:31:00,70.9,66.7,30.11,South,184,0.0,0.0,87,0.00,,,0.00,meteobridge,2013-08-12 02:31:00,
2013-08-11 22:36:00,70.9,66.7,30.11,South,184,0.0,0.0,87,0.00,,,0.00,meteobridge,2013-08-12 02:36:00,
2013-08-11 22:42:00,70.5,66.7,30.11,South,184,0.0,0.9,88,0.00,,,0.00,meteobridge,2013-08-12 02:42:00,
2013-08-11 22:47:00,70.5,67.1,30.10,SSW,198,0.9,2.0,89,0.00,,,0.00,meteobridge,2013-08-12 02:47:00,
2013-08-11 22:52:00,70.5,67.1,30.10,SE,144,0.0,0.9,89,0.00,,,0.00,meteobridge,2013-08-12 02:52:00,
2013-08-11 22:57:00,70.5,67.1,30.10,SSW,202,0.0,2.0,89,0.00,,,0.00,meteobridge,2013-08-12 02:57:00,
2013-08-11 23:02:00,70.7,67.6,30.10,SSE,167,0.9,4.0,90,0.00,,,0.00,meteobridge,2013-08-12 03:02:00,
2013-08-11 23:07:00,70.7,67.6,30.10,SSE,150,0.0,0.0,90,0.00,,,0.00,meteobridge,2013-08-12 03:07:00,
2013-08-11 23:12:00,70.9,67.8,30.10,SE,138,0.0,0.9,90,0.00,,,0.00,meteobridge,2013-08-12 03:12:00,
2013-08-11 23:18:00,70.9,67.8,30.10,SW,224,0.0,2.9,90,0.00,,,0.00,meteobridge,2013-08-12 03:18:00,
2013-08-11 23:23:00,70.9,67.8,30.10,SE,128,0.9,4.9,90,0.00,,,0.00,meteobridge,2013-08-12 03:23:00,
2013-08-11 23:28:00,71.1,68.0,30.10,SW,227,0.0,2.0,90,0.00,,,0.00,meteobridge,2013-08-12 03:28:00,
2013-08-11 23:33:00,71.1,68.0,30.10,SW,227,0.0,0.0,90,0.00,,,0.00,meteobridge,2013-08-12 03:33:00,
2013-08-11 23:38:00,71.1,68.0,30.10,WSW,241,0.0,0.9,90,0.00,,,0.00,meteobridge,2013-08-12 03:38:00,
2013-08-11 23:43:00,71.1,68.4,30.10,WSW,241,0.0,0.9,91,0.00,,,0.00,meteobridge,2013-08-12 03:43:00,
2013-08-11 23:49:00,71.1,68.4,30.09,South,177,0.0,0.0,91,0.00,,,0.00,meteobridge,2013-08-12 03:49:00,
2013-08-11 23:54:00,71.1,68.4,30.09,South,177,0.0,0.9,91,0.00,,,0.00,meteobridge,2013-08-12 03:54:00,
2013-08-11 23:59:00,71.1,68.4,30.10,ESE,110,0.0,2.0,91,0.00,,,0.00,meteobridge,2013-08-12 03:59:00,